Regional Weather Roundup
Issued by NWS Charleston, SC

Current Version | Previous Version | Text Only | Print | Product List | Glossary Off
Versions: 1 2 3 4 5 6 7 8 9 10 11 12 13 14 15 16 17 18 19 20 21 22 23 24 25 26 27 28 29 30 31 32 33 34 35 36 37 38 39 40 41 42 43 44 45 46 47 48 49 50

000
ASUS42 KCHS 191310
RWRCHS
REGIONAL WEATHER ROUNDUP
NATIONAL WEATHER SERVICE CHARLESTON SC
800 AM EST FRI DEC 19 2014

NOTE: "FAIR" INDICATES FEW OR NO CLOUDS BELOW 12,000 FEET WITH NO
SIGNIFICANT WEATHER AND/OR OBSTRUCTIONS TO VISIBILITY.

NOT ALL STATIONS ARE QUALITY CONTROLLED BY THE NATIONAL
WEATHER SERVICE. USE DATA WITH CAUTION...ESPECIALLY
DEWPOINT OBSERVATIONS.

SCZ027-030-031-034>040-042>050-191400-
...SOUTHEAST SOUTH CAROLINA...

CITY           SKY/WX    TMP DP  RH WIND       PRES   REMARKS
N CHARLESTON   PTCLDY    40  39  97 CALM      30.13R FOG
WATERFRONT PRK   N/A     50 N/A N/A CALM        N/A
MOUNT PLEASANT FAIR      39  39 100 CALM      30.13R FOG
PINOPOLIS        N/A     46  43  87 CALM      30.04R
MONCKS CORNER  FAIR      39  37  93 CALM      30.13R
SUMMERVILLE    NOT AVBL
BEAUFORT MCAS  PTCLDY    44  40  85 CALM      30.14R
BEAUFORT ARPT  FAIR      43  43 100 CALM      30.13R
HILTON HEAD IS PTCLDY    46  43  87 CALM      30.15R
WALTERBORO     SUNNY     37 N/A N/A NW3       30.14R HAZE
ALLENDALE      FAIR      37  37 100 CALM      30.14R FOG

...SOUTHERN MIDLANDS AND PEE DEE...

CITY           SKY/WX    TMP DP  RH WIND       PRES   REMARKS
GEORGETOWN     NOT AVBL
KINGSTREE      NOT AVBL
ORANGEBURG     CLEAR     39  35  86 CALM      30.13R
BARNWELL         N/A     34  34 100 CALM      30.15R
AIKEN          FAIR      37  37 100 CALM      30.16R
MANNING        NOT AVBL
COLUMBIA       MOCLDY    35  32  88 W3        30.14R
SUMTER         CLEAR     36  33  89 NE7       30.13R WCI  30
FLORENCE       CLEAR     37  31  78 CALM      30.15R
MYRTLE BEACH   CLEAR     39  34  81 N5        30.15R WCI  36
N MYRTLE BEACH PTCLDY    37  35  92 N5        30.13R WCI  33

$$

GAZ063-065-086>088-099>101-113>116-118-119-134>141-150-191400-
...SOUTHEAST GEORGIA...

CITY           SKY/WX    TMP DP  RH WIND       PRES   REMARKS
SAVANNAH ARPT  MOCLDY    42  38  85 W3        30.15R
HUNTER AAF     PTCLDY    42  40  91 NW3       30.12R
FORT STEWART   MOCLDY    45  39  80 CALM      30.13R
STATESBORO     CLEAR     36  36 100 CALM      30.15R
SYLVANIA       MOSUNNY   37  37 100 CALM      30.16R
CLAXTON        FAIR      36  36 100 CALM      30.15R

...CSRA...CENTRAL AND FAR SOUTHEAST GEORGIA...

CITY           SKY/WX    TMP DP  RH WIND       PRES   REMARKS
THOMSON        MOCLDY    34  34 100 CALM      30.20R
AUGUSTA-BUSH   MOCLDY    32  32 100 CALM      30.15R
AUGUSTA-DANIEL MOCLDY    44  36  73 NW6       30.14R
SWAINSBORO     FAIR      39  39 100 NW3       30.16R
VIDALIA        CLEAR     43  36  75 CALM      30.15S
EASTMAN        FAIR      36  36 100 N3        30.18S
HAZLEHURST     FAIR      42  41  98 CALM      30.14S
ALMA           PTCLDY    47  36  65 N5        30.15R
WAYCROSS       CLOUDY    50  44  79 N5        30.15R
JESUP          FAIR      43  41  93 CALM      30.15R
BAXLEY         FAIR      45  37  76 CALM      30.15R
BRUNSWICK      MOCLDY    45  41  87 CALM      30.15R
SAINT SIMONS   FAIR      48  41  76 CALM      30.14R

$$

SCZ027-028-034-036>038-045-046-048>050-GAZ119-141-191400-
...LAKE AND SUPPLEMENTAL COASTAL OBSERVATIONS...

STATION/POSITION TIME  TEMP    WIND        PRES    WAVE   SWELL
                       AIR SEA DIR/SP/G            HT/PER HT/PER/DIR
                 (UTC) (F)     (DEG/KT/KT) (MB)    (FT/S) (FT/S/D)
UPR LAKE MARION  NOT AVBL
WINYAH BAY       1200   44     340/  2     1018.0S
LAKE MURRAY      1200   40     340/  1/  4 1019.6R
ACE BASIN NERRS  1200   41        CALM     1019.0S
FORT PULASKI     1300   49 57  300/  6/  7 1020.8R
SAPELO ISLAND    1200   46     330/  3     1020.0R

$$

ANZ835-935-AMZ111-154-330-350-352-354-370-450-454-472-191400-
...C-MAN AND BUOY OBSERVATIONS...

STATION/POSITION TIME  TEMP    WIND        PRES    WAVE   SWELL
                       AIR SEA DIR/SP/G            HT/PER HT/PER/DIR
                 (UTC) (F)     (DEG/KT/KT) (MB)    (FT/S) (FT/S/D)
BUOY 41004       1300   61 72  330/  6/  8 1019.5R   1/10   2/10
BUOY 41008       1300   57 57  330/  6/  8 1020.0R   1
FOLLY BEACH CMAN 1200   49     310/  3/  4 1020.2R
CAPERS NEARSHORE 1200   53      30/  4/  4   N/A
FRIPP NEARSHORE  NOT AVBL


STATION/POSITION TIME  TEMP    WIND        PRES    WAVE   SWELL
                       AIR SEA DIR/SP/G            HT/PER HT/PER/DIR
                 (UTC) (F)     (DEG/KT/KT) (MB)    (FT/S) (FT/S/D)
5E ST. MARYS GA  1200      60                N/A     1/10
FRYING PAN BUOY  1300   56 65  360/ 10/ 12 1020.5R   2/11   2/120/11
BUOY 41025       1300   50                 1019.9R   2/ 8
CAPE LOOKOUT NC  1200   46     330/ 12/ 13 1019.7R
BUOY 41002       1203   69 72  330/ 10/ 12 1018.2    3/ 5   2/270/ 5
BUOY 41010       1300   69 76  300/  6/  8 1019.4R   2/10   2/ 60/10
ST AUGUSTINE FL  1300   50     320/  4/  5 1021.0R


$$


USA.gov is the U.S. government's official web portal to all federal, state and local government web resources and services.